Location: Newark
(41.0833°N, 9.3833°E)
Time: 11:28:05
(UTC+00:00)

Hubble Space Telescope - Pass Details

Date: 08 April 2020
Orbit: 536 x 540 km, 28.5° (Epoch: 01 June)

Event Time Altitude Azimuth Distance (km) Brightness Sun altitude
Rises 19:04:54 0° 227° (SW) 2,664 4.7 -13.4°
Reaches altitude 10° 19:08:19 10° 197° (SSW) 1,775 3.4 -14.0°
Maximum altitude 19:10:05 12° 172° (S) 1,622 2.9 -14.3°
Enters shadow 19:10:34 12° 164° (SSE) 1,634 2.9 -14.3°
